[[{"header":{"parameterUnit":"m.s-1","parameterCategory":1,"la1":30.2991,"la2":30.254,"lo1":-89.0895,"lo2":-89.0444,"dy":0.0017,"dx":0.0017,"nx":28,"ny":28,"refTime":"2024-03-15T21:00:00:Z","depth":0,"parameterNumber":2,"parameterNumberName":"U-component_of_WINDS"},"data":[0,0,0,0,0,0,0,0,0,0,0,0,0,0,0,0,0,0,0,0,0,0,0,0,0,0,0,0,0,0,0,0,0,0,0,0,0,0,0,0,0,0,0,0,0,0,0,0,0,0,0,0,0,0,0,0,0,0,-0.0875,-0.0875,0,-0.0856,-0.0856,-0.0856,-0.0841,-0.084,-0.084,-0.084,-0.0821,-0.082,-0.082,0,0,0,0,0,0,0,0,0,0,0,0,0,-0.0899,-0.0899,-0.0875,-0.0875,-0.0875,-0.0856,-0.0856,-0.0856,-0.0841,-0.084,-0.084,-0.084,-0.0821,-0.082,-0.082,0,0,0,0,0,0,0,0,0,0,0,0,0,-0.0885,-0.0899,-0.0875,-0.0865,-0.0864,-0.0856,-0.0856,-0.0856,-0.0841,-0.084,-0.084,-0.084,-0.0821,-0.082,-0.082,-0.0821,0,0,-0.0818,-0.0818,0,0,0,0,0,0,0,0,-0.0886,-0.0884,-0.0867,-0.0866,-0.0864,-0.0851,-0.0857,-0.0844,-0.0841,-0.0849,-0.084,-0.084,-0.0831,-0.0829,-0.0826,-0.082,-0.0819,-0.0818,-0.0818,-0.0817,-0.0817,0,0,0,0,0,0,0,-0.0887,-0.0885,-0.0868,-0.0867,-0.0865,-0.0862,-0.0859,-0.0855,-0.0842,-0.0849,-0.0848,-0.0845,-0.083,-0.0827,-0.0826,-0.0819,-0.0818,-0.0818,-0.0817,-0.0817,-0.0814,-0.0814,0,0,0,0,0,0,-0.089,-0.0886,-0.0868,-0.0867,-0.0875,-0.0861,-0.0859,-0.0855,-0.0842,-0.0839,-0.0846,-0.0845,-0.0828,-0.0826,-0.0825,-0.0826,-0.0817,-0.0817,-0.0817,-0.0813,-0.0814,-0.0814,0,0,0,0,0,0,-0.089,-0.0888,-0.0869,-0.0876,-0.0874,-0.0861,-0.0857,-0.0855,-0.0852,-0.0839,-0.0837,-0.0845,-0.0828,-0.0826,-0.0822,-0.0825,-0.0817,-0.0816,-0.0813,-0.0813,-0.0814,-0.0828,0,0,0,0,0,0,-0.0891,-0.0888,-0.0889,-0.0876,-0.0873,-0.0867,-0.0857,-0.0855,-0.0851,-0.085,-0.0838,-0.0836,-0.0827,-0.0823,-0.0822,-0.0824,-0.0816,-0.0813,-0.0813,-0.0814,-0.0827,-0.0829,-0.083,0,0,0,0,0,-0.0892,-0.0893,-0.0889,-0.0887,-0.0873,-0.0867,-0.0865,-0.0855,-0.0851,-0.0851,-0.0844,-0.0836,-0.0825,-0.0823,-0.0821,-0.0824,-0.0813,-0.0813,-0.0814,-0.0827,-0.0828,-0.083,0,0,0,0,0,0,-0.0906,-0.0891,-0.0886,-0.0884,-0.0877,-0.0864,-0.0864,-0.0858,-0.0852,-0.0851,-0.0839,-0.0836,-0.0834,-0.0828,-0.0826,-0.0824,-0.0818,-0.0818,-0.0828,-0.083,-0.0831,-0.0833,-0.0815,0,0,0,0,0,-0.0909,-0.0905,-0.0892,-0.0891,-0.0888,-0.0877,-0.0874,-0.0867,-0.0859,-0.0856,-0.0848,-0.0841,-0.0836,-0.0832,-0.0827,-0.0826,-0.0824,-0.0827,-0.0829,-0.083,-0.083,-0.083,-0.0832,-0.0816,-0.0816,-0.0816,0,0,-0.0915,-0.0906,-0.0904,-0.0894,-0.0888,-0.0884,-0.0874,-0.0871,-0.0868,-0.0855,-0.0852,-0.0846,-0.0837,-0.0835,-0.0834,-0.083,-0.0834,-0.0831,-0.0832,-0.0831,-0.0831,-0.0832,-0.0834,-0.0816,-0.0816,-0.0816,0,0,-0.0923,-0.0916,-0.0915,-0.0909,-0.09,-0.0892,-0.0892,-0.0881,-0.0876,-0.0873,-0.0863,-0.086,-0.0851,-0.0846,-0.0842,-0.0849,-0.0842,-0.0847,-0.0855,-0.0855,-0.0856,-0.0857,-0.0861,-0.0862,-0.0848,-0.0848,-0.0848,0,-0.0932,-0.0926,-0.0915,-0.0912,-0.0908,-0.0897,-0.0896,-0.089,-0.088,-0.0878,-0.0874,-0.0863,-0.0856,-0.0853,-0.0855,-0.0852,-0.0852,-0.0849,-0.0857,-0.0858,-0.0859,-0.0862,-0.0863,-0.0849,-0.0849,-0.0848,-0.0848,0,-0.0937,-0.0933,-0.0933,-0.0923,-0.0919,-0.0917,-0.0907,-0.0904,-0.0898,-0.0891,-0.0887,-0.0879,-0.0872,-0.0871,-0.0864,-0.0867,-0.0865,-0.0859,-0.0852,-0.0861,-0.0864,-0.0865,-0.085,-0.0849,-0.0849,-0.0849,0,0,-0.0954,-0.0939,-0.0939,-0.0935,-0.0924,-0.0921,-0.0918,-0.0912,-0.091,-0.0903,-0.0901,-0.0894,-0.0889,-0.0885,-0.0877,-0.0877,-0.0885,-0.0872,-0.0871,-0.0875,-0.0887,-0.0892,-0.0894,-0.088,-0.088,-0.088,-0.0888,0,-0.0961,-0.0956,-0.0947,-0.0945,-0.0942,-0.0931,-0.0929,-0.0923,-0.0916,-0.0913,-0.0905,-0.0901,-0.0894,-0.0892,-0.0891,-0.0884,-0.0887,-0.0883,-0.0878,-0.0878,-0.0881,-0.0895,-0.09,-0.0908,-0.0889,-0.0889,-0.089,0,-0.0969,-0.0963,-0.0961,-0.0951,-0.0949,-0.0947,-0.0941,-0.0937,-0.093,-0.0925,-0.0921,-0.0913,-0.091,-0.0904,-0.0901,-0.0898,-0.0896,-0.0892,-0.0892,-0.0891,-0.0885,-0.0895,-0.091,-0.0912,-0.0891,-0.0891,-0.0891,0,-0.0982,-0.0974,-0.0971,-0.0968,-0.0956,-0.0955,-0.095,-0.0943,-0.0939,-0.0934,-0.0932,-0.0926,-0.0923,-0.0918,-0.0909,-0.0906,-0.0907,-0.09,-0.0904,-0.0904,-0.0905,-0.0905,-0.092,-0.0902,-0.0902,-0.0902,-0.0902,0,-0.0991,-0.0991,-0.0977,-0.0976,-0.0975,-0.0965,-0.0964,-0.0958,-0.0952,-0.0949,-0.094,-0.0938,-0.0926,-0.0923,-0.0916,-0.0914,-0.0913,-0.0909,-0.0907,-0.091,-0.0911,-0.0909,-0.0908,-0.0903,-0.0903,-0.0903,-0.0902,0,-0.1006,-0.0997,-0.0994,-0.0983,-0.0981,-0.098,-0.0971,-0.097,-0.0963,-0.096,-0.0959,-0.0948,-0.0944,-0.0935,-0.0928,-0.0923,-0.0924,-0.092,-0.0927,-0.0925,-0.093,-0.093,-0.0945,-0.0946,-0.0927,-0.0928,-0.0928,0,-0.1013,-0.1012,-0.1001,-0.0999,-0.0995,-0.0991,-0.0988,-0.0978,-0.0975,-0.0967,-0.0966,-0.0961,-0.0957,-0.0951,-0.0942,-0.0937,-0.0934,-0.0939,-0.0933,-0.0936,-0.0935,-0.0935,-0.0935,-0.0941,-0.0941,-0.0941,-0.0942,0,-0.1026,-0.1022,-0.1018,-0.1012,-0.1008,-0.1003,-0.0998,-0.0997,-0.0985,-0.0983,-0.0978,-0.0975,-0.0968,-0.0963,-0.0957,-0.0952,-0.0945,-0.0944,-0.0944,-0.0947,-0.0951,-0.095,-0.0931,-0.0943,-0.0943,-0.0943,-0.0943,-0.0943,-0.1037,-0.1037,-0.1029,-0.1025,-0.102,-0.1015,-0.1013,-0.1006,-0.1003,-0.0996,-0.0991,-0.0987,-0.098,-0.0971,-0.0966,-0.0964,-0.096,-0.0961,-0.0961,-0.0962,-0.0963,-0.0951,-0.0962,-0.0962,-0.0962,-0.0962,-0.0962,0,-0.1051,-0.1045,-0.1042,-0.1034,-0.1031,-0.1025,-0.1019,-0.1016,-0.1013,-0.1007,-0.1003,-0.0999,-0.0994,-0.0986,-0.0981,-0.098,-0.0977,-0.0979,-0.0979,-0.0979,-0.0966,-0.0967,-0.0982,-0.0982,-0.0982,-0.0982,-0.0982,-0.0982,-0.1057,-0.1056,-0.1051,-0.1047,-0.1041,-0.1038,-0.1035,-0.1031,-0.1026,-0.1021,-0.1017,-0.1012,-0.1005,-0.1,-0.0996,-0.0993,-0.0992,-0.0995,-0.0992,-0.0981,-0.0979,-0.0977,-0.0978,-0.0995,-0.0995,-0.1005,-0.1005,-0.1005]},{"header":{"parameterUnit":"m.s-1","parameterCategory":1,"la1":30.2991,"la2":30.254,"lo1":-89.0895,"lo2":-89.0444,"dy":0.0017,"dx":0.0017,"nx":28,"ny":28,"refTime":"2024-03-15T21:00:00:Z","depth":0,"parameterNumber":3,"parameterNumberName":"V-component_of_WINDS"},"data":[0,0,0,0,0,0,0,0,0,0,0,0,0,0,0,0,0,0,0,0,0,0,0,0,0,0,0,0,0,0,0,0,0,0,0,0,0,0,0,0,0,0,0,0,0,0,0,0,0,0,0,0,0,0,0,0,0,0,1.1359,1.1359,0,1.1347,1.1346,1.1346,1.1322,1.1322,1.1321,1.1321,1.1308,1.1308,1.1308,0,0,0,0,0,0,0,0,0,0,0,0,0,1.1362,1.1362,1.1359,1.1359,1.1359,1.1347,1.1346,1.1346,1.1322,1.1322,1.1321,1.1321,1.1308,1.1308,1.1308,0,0,0,0,0,0,0,0,0,0,0,0,0,1.1356,1.1362,1.1359,1.1345,1.1344,1.1347,1.1346,1.1346,1.1323,1.1322,1.1321,1.132,1.1308,1.1308,1.1308,1.1323,0,0,1.1309,1.1309,0,0,0,0,0,0,0,0,1.1356,1.1356,1.1347,1.1346,1.1345,1.1335,1.1343,1.1339,1.1323,1.1331,1.1321,1.132,1.1318,1.1317,1.1316,1.1323,1.1322,1.1309,1.1309,1.1309,1.1309,0,0,0,0,0,0,0,1.1357,1.1356,1.1354,1.1347,1.1346,1.134,1.1338,1.1342,1.1328,1.133,1.1328,1.1327,1.1317,1.1316,1.1316,1.1322,1.1309,1.1309,1.1309,1.1309,1.1341,1.1342,0,0,0,0,0,0,1.1359,1.1357,1.1354,1.1354,1.1349,1.134,1.1338,1.1339,1.1328,1.1326,1.1328,1.1326,1.1316,1.1316,1.1315,1.1333,1.1309,1.1309,1.1309,1.134,1.1341,1.1342,0,0,0,0,0,0,1.1359,1.1359,1.1355,1.1355,1.1354,1.1341,1.1342,1.1339,1.1338,1.1326,1.1324,1.133,1.1316,1.1315,1.1322,1.1332,1.1309,1.1309,1.1339,1.1341,1.1342,1.1368,0,0,0,0,0,0,1.136,1.1359,1.1365,1.1355,1.1354,1.1362,1.1342,1.1339,1.1339,1.1337,1.1328,1.1325,1.1315,1.1322,1.1322,1.1332,1.1309,1.1338,1.134,1.1341,1.1366,1.137,1.1373,0,0,0,0,0,1.136,1.1373,1.1365,1.1365,1.1361,1.1362,1.1362,1.135,1.134,1.1345,1.1338,1.1326,1.1331,1.1323,1.1323,1.1333,1.1338,1.1339,1.1341,1.1365,1.1369,1.1373,0,0,0,0,0,0,1.1384,1.1371,1.1363,1.1373,1.1369,1.1358,1.1365,1.1355,1.1353,1.1351,1.1336,1.1334,1.1343,1.1338,1.133,1.1347,1.1332,1.1334,1.135,1.1354,1.1358,1.1359,1.1309,0,0,0,0,0,1.139,1.1393,1.1381,1.1391,1.139,1.1378,1.1378,1.1369,1.1364,1.1363,1.1355,1.1351,1.1352,1.1353,1.1353,1.1365,1.1363,1.1372,1.1376,1.1379,1.1381,1.1388,1.1392,1.1348,1.1348,1.1348,0,0,1.1404,1.1397,1.14,1.1396,1.1392,1.1395,1.1377,1.138,1.1383,1.1363,1.1369,1.1364,1.1358,1.1368,1.1372,1.1365,1.1392,1.1381,1.1383,1.1384,1.139,1.1394,1.1398,1.1349,1.1349,1.1348,0,0,1.143,1.1425,1.1433,1.143,1.1424,1.1416,1.1418,1.1409,1.1404,1.141,1.1396,1.1398,1.14,1.1397,1.1395,1.1421,1.141,1.1421,1.144,1.1447,1.1451,1.1454,1.1464,1.1468,1.1423,1.1423,1.1423,0,1.1448,1.1452,1.1439,1.1444,1.1443,1.1426,1.1434,1.1431,1.1425,1.1425,1.1417,1.1419,1.1413,1.1423,1.1429,1.1428,1.1431,1.1423,1.1451,1.1454,1.1457,1.1466,1.147,1.1425,1.1424,1.1424,1.1424,0,1.1474,1.1477,1.1485,1.148,1.148,1.1487,1.1475,1.1476,1.1468,1.1461,1.1467,1.1461,1.1459,1.1461,1.1452,1.1469,1.1465,1.1454,1.1439,1.1463,1.1471,1.1475,1.1427,1.1426,1.1426,1.1425,0,0,1.1516,1.1504,1.1507,1.1505,1.1498,1.15,1.1506,1.1505,1.1507,1.1504,1.1509,1.1511,1.1501,1.1499,1.149,1.1496,1.1518,1.1484,1.1484,1.1492,1.1538,1.1547,1.1552,1.1511,1.1511,1.1512,1.1539,0,1.1541,1.1551,1.154,1.1553,1.1556,1.1539,1.1545,1.1541,1.1534,1.1536,1.1529,1.1531,1.1517,1.1516,1.1522,1.1515,1.1528,1.1512,1.1516,1.1517,1.1519,1.1556,1.1566,1.1592,1.1542,1.1543,1.1543,0,1.1572,1.1571,1.1585,1.1577,1.1578,1.1583,1.1581,1.1583,1.1578,1.1573,1.1572,1.1561,1.1567,1.1552,1.156,1.155,1.155,1.1547,1.1548,1.1549,1.1532,1.1559,1.16,1.1604,1.1548,1.1548,1.1548,0,1.1603,1.1604,1.1613,1.1611,1.1602,1.1607,1.1603,1.1597,1.1598,1.1596,1.1597,1.1596,1.1596,1.1595,1.1585,1.1574,1.1595,1.1578,1.1591,1.1592,1.1597,1.1597,1.164,1.1596,1.1596,1.1596,1.1596,0,1.1633,1.1642,1.1627,1.1632,1.1642,1.1628,1.1638,1.1633,1.1628,1.1632,1.1617,1.1622,1.1607,1.1609,1.1601,1.161,1.1609,1.1606,1.1604,1.1608,1.1608,1.1609,1.1607,1.1597,1.1596,1.1596,1.1596,0,1.167,1.1659,1.1667,1.1658,1.1656,1.1664,1.1656,1.1661,1.1653,1.1659,1.1659,1.1648,1.165,1.1639,1.1639,1.1634,1.1647,1.1641,1.1649,1.1648,1.1662,1.1661,1.1707,1.1713,1.1665,1.1665,1.1665,0,1.169,1.1697,1.1689,1.169,1.1688,1.1691,1.1691,1.1678,1.1679,1.1675,1.168,1.1681,1.1682,1.1687,1.1678,1.1679,1.1674,1.169,1.1674,1.1678,1.1675,1.1676,1.1677,1.1693,1.1694,1.1695,1.1695,0,1.1728,1.1723,1.1724,1.1724,1.1725,1.1724,1.1722,1.1725,1.1711,1.1713,1.1715,1.1716,1.1716,1.1718,1.1717,1.1713,1.1702,1.17,1.1703,1.1708,1.1713,1.1712,1.166,1.1699,1.1699,1.1698,1.1698,1.1698,1.1758,1.1764,1.1759,1.1761,1.1758,1.1757,1.1762,1.1755,1.1757,1.1757,1.1748,1.1753,1.1748,1.1746,1.1743,1.1747,1.1739,1.1744,1.1745,1.1747,1.175,1.1711,1.1746,1.1746,1.1746,1.1746,1.1746,0,1.1797,1.1793,1.1795,1.1793,1.1795,1.1784,1.1781,1.1784,1.1788,1.1785,1.1786,1.1789,1.1791,1.1783,1.1784,1.1788,1.1783,1.1789,1.1789,1.1789,1.1756,1.1754,1.1793,1.1793,1.1793,1.1793,1.1793,1.1793,1.1817,1.1826,1.1821,1.1828,1.1824,1.1829,1.1828,1.1827,1.1825,1.183,1.1831,1.1826,1.1821,1.1821,1.1823,1.182,1.1822,1.183,1.1826,1.1795,1.1791,1.1787,1.1784,1.183,1.183,1.1859,1.1859,1.1859]}]]